Погода в Октябрьском

Россия / Омская область     55°49′06″N   72°13′05″E
темп.,
°C
ветер,
м/с
пор.,
м/с
влажн.,
%
обл.,
%
осадки,
мм/ч
давл.,
гПа
погр.,
м
31 июля, сб
сб3100:00+19ююз71548100 0.0 1007410
03:00+17ююз61470100 0.1 1006476
06:00+14юз71494100 3.8 1006592
09:00+16юз5109192 1.0 1007526
12:00+22зюз456253 1.0 10071094
15:00+23зсз456087 0.0 1007921
18:00+25сз475232 0.1 10081503
21:00+20ссз227217 0.0 100930
1 августа, вс
вс100:00+16с229067 0.0 101020
03:00+15всв119386 0.0 101113
06:00+15всв119499 0.0 101111
09:00+19юз127788 0.0 1011321
12:00+19ююз2380100 0.0 1011169
15:00+20ююв347323 0.0 1010248
18:00+22юв466363 0.0 1007256
21:00+18ююв3897100 6.4 1008322
2 августа, пн
пн200:00+17ю3998100 7.1 1007264
03:00+17зюз4109828 0.7 1006241
06:00+17зсз4119710 0.7 1007314
09:00+20зсз59810 0.0 1007453
12:00+24зсз78540 0.0 10081445
15:00+26зсз794210 0.0 10082241
18:00+24зсз6949100 0.0 10081105
21:00+20сз4116448 0.0 1010380
3 августа, вт
вт300:00+18сз357360 0.0 1011122
03:00+15зсз488532 0.0 1011132
06:00+16зсз477519 0.0 1012117
09:00+21зсз5759100 0.0 1013325
12:00+22зсз5752100 0.0 1013584
15:00+26зсз563935 0.0 10122193
18:00+26з3543100 0.0 10111703
21:00+18з118369 3.1 101112
4 августа, ср
ср400:00+16ю22978 5.7 101143
03:00+15ссз34964 0.0 101167
06:00+15ссв249815 0.0 101281
09:00+19ссв348421 0.0 1013427
12:00+24ссв34560 0.0 10141199
15:00+26с444479 0.0 10132002
18:00+25ссз4448100 0.0 10131072
21:00+21ссз3560100 0.0 101489